www.pogodaiklimat.ru

Погода и климат >> Архив погоды >> Россия >> Калмыкия >> Юста


ПОГОДА в Юсте

  • Прогноз погоды в Юсте
  • Монитор погоды в Юсте
  • Климат города

АРХИВ ПОГОДЫ в Юсте

Время (UTC), дата Ветер
(напр.,м/с)
 
Видим.   Явления Облачность Т
(С)
Тd
(С)
f
(%)
Тe
(С)
Тes
(С)
Комфортность P
(гПа)
Po
(гПа)
Тmin
(С)
Tmax
(С)
R
(мм)
R24
(мм)
S
(см)
21 20.06 З 3
{11}
10 км ясно +19.2 +11.7 62 +20 +20 1006.8 1006.4
00 21.06 ЮЗ 3 10 км 6/0
[Cs]
+16.6 +12.4 76 +16 +16 1006.6 1006.2
03 21.06 З 4 20 км 6/0
[Ac trans Ci fib]
+19.1 +13.4 70 +20 +21 1006.6 1006.2 +15.9
06 21.06 СЗ 1 20 км 3/0
[Ac trans Ci fib]
+26.2 +11.7 40 +27 +39 жарко 1006.3 1005.9
09 21.06 З 3 20 км 8/8 1000 м
[Cu med, cong]
+29.7 +8.6 27 +29 +32 жарко 1005.3 1005.0
12 21.06 СЗ 8-13
{13}
4000 м гроза, пыльная буря {метель} 9/6 600 м
[Cb calv Ac trans]
+26.5 +12.0 40 +28 +28 жарко 1004.5 1004.2
15 21.06 ЮЗ 7-12
{19}
20 км {гроза, ливн. осадки} 5/3 600 м
[Cb calv Ac trans Ci fib]
+28.9 +11.2 33 +29 +30 жарко 1003.9 1003.5 +32.7 7
18 21.06 ЮЗ 4
{13}
10 км {гроза} 5/3 600 м
[Cb calv Ac cuf]
+24.6 +13.2 49 +27 +27 жарко 1005.5 1005.2
21 21.06 СЗ 2
{11}
10 км 8/0
[Ac cuf]
+20.8 +13.9 65 +24 +24 комфорт 1005.2 1004.8
00 22.06 ЮЗ 3 н/о н/о +20.4 +14.0 67 +23 +23 комфорт 1005.2 1004.9
03 22.06 З 3 20 км 4/0
[Ac trans Ci fib]
+20.2 +14.3 69 +23 +24 комфорт 1005.4 1005.0 +19.4
06 22.06 З 4 20 км 6/0
[Ac cuf]
+25.4 +16.4 57 +29 +34 душно 1005.4 1005.1
09 22.06 З 6-10
{10}
20 км 8/5 600 м
[Cb calv Ac cuf]
+29.4 +13.2 37 +31 +33 жарко 1005.5 1005.1
12 22.06 З 7-10
{11}
20 км 5/4 600 м
[Cb calv Ac cuf Cc]
+31.6 +9.5 26 +31 +33 жарко 1004.2 1003.9
15 22.06 З 2
{15}
4000 м слабый дождь {гроза} 10/0 300 м
[As op]
+20.7 +18.3 86 +25 +26 комфорт 1006.9 1006.5 +31.6 3
18 22.06 З 2 10 км {ливн. осадки} 8/3 600 м
[Sc diur, vesp Ac cuf]
+19.7 +17.8 89 +23 +23 комфорт 1008.2 1007.8
21 22.06 СЗ 4 10 км 8/0
[Ac trans]
+18.8 +15.3 80 +20 +20 1009.5 1009.2
00 23.06 СЗ 3 10 км 8/0
[Ac trans]
+15.7 +11.5 76 +15 +15 1010.8 1010.4
03 23.06 СЗ 2 20 км 4/0
[Ci fib]
+17.2 +11.2 68 +18 +19 1012.1 1011.8 +14.3 2
06 23.06 СЗ 3 20 км 3/0
[Ci fib]
+24.4 +6.2 31 +24 +34 комфорт 1013.2 1012.9
09 23.06 З 3 20 км 9/6 600 м
[Cb calv Ac trans Cs]
+25.8 +5.2 27 +25 +29 комфорт 1013.4 1013.1
12 23.06 З 3 20 км 8/6 1000 м
[Cu med, cong Ac trans]
+27.2 +5.0 24 +26 +29 жарко 1011.7 1011.4
15 23.06 З 4 20 км 8/5 1000 м
[Cu med, cong Ac trans Ci fib]
+27.1 +4.9 24 +26 +26 жарко 1010.9 1010.6 +28.4
18 23.06 ЮЗ 2 10 км 6/0
[Ac cuf]
+21.6 +7.3 40 +23 +23 комфорт 1011.8 1011.5
21 23.06 Ю 2 10 км ясно +17.4 +9.5 60 +18 +18 1011.4 1011.0
00 24.06 Ю 3 10 км 3/0
[Ci fib]
+15.3 +9.8 70 +15 +15 1010.3 1009.9
03 24.06 ЮЗ 3 20 км 6/0
[Ac trans Ci fib]
+19.3 +12.0 63 +21 +22 комфорт 1010.1 1009.8 +15.0
06 24.06 ЮЗ 4 20 км 8/0
[Ci fib]
+24.7 +13.6 50 +27 +34 жарко 1009.0 1008.6
09 24.06 ЮЗ 8-13
{13}
20 км 10/8 1000 м
[Cu med, cong Ac cuf]
+26.8 +10.4 36 +28 +28 жарко 1007.6 1007.3
12 24.06 ЮЗ 4
{14}
20 км 10/8 600 м
[Cb calv Ac cuf]
+24.5 +13.2 49 +27 +27 жарко 1006.5 1006.2
15 24.06 З 10-16
{16}
20 км 9/6 1000 м
[Cu med, cong Ac cuf Cs]
+26.4 +14.0 46 +29 +29 жарко 1005.3 1005.0 +27.4
18 24.06 З 5
{16}
10 км 8/0
[Ac cuf]
+21.3 +17.3 78 +25 +25 комфорт 1007.5 1007.1
21 24.06 СЗ 3 10 км 9/9 300 м
[Sc]
+19.6 +17.0 85 +22 +22 комфорт 1008.6 1008.2
00 25.06 С 4 10 км 9/9 300 м
[Sc]
+16.8 +12.4 75 +16 +16 1009.6 1009.2
03 25.06 СВ 2 20 км в посл. час дождь 10/10 300 м
[Cu med, cong]
+15.4 +11.5 78 +15 +15 1011.4 1011.1 +15.2 0.7
06 25.06 В 1 20 км в посл. час дождь 9/9 300 м
[Sc]
+15.4 +11.5 78 +16 +17 1012.7 1012.3 +15.0
09 25.06 З 1 20 км {дождь} 9/9 600 м
[Sc]
+17.6 +11.0 65 +19 +21 1013.9 1013.5
12 25.06 З 2 20 км {дождь} 3/0
[Ac trans Ci fib]
+23.0 +8.1 38 +24 +34 комфорт 1013.6 1013.3
15 25.06 С 4 20 км 3/0
[Ac trans]
+24.7 +5.3 29 +24 +25 комфорт 1014.1 1013.7 +25.0 1
18 25.06 З 1 10 км ясно +18.8 +8.8 52 +20 +20 1015.7 1015.4
21 25.06 З 3 10 км ясно +15.8 +9.7 67 +15 +15 1016.9 1016.5
00 26.06 ЮЗ 2 10 км ясно +14.4 +10.4 77 +14 +14 1017.3 1016.9
03 26.06 ЮЗ 3 20 км 3/3 600 м
[Sc]
+18.7 +11.5 63 +20 +21 1017.5 1017.1 +14.0
06 26.06 ЮЗ 5 20 км 3/0
[Ac trans]
+25.4 +7.7 32 +25 +31 комфорт 1018.0 1017.6
09 26.06 ЮЗ 4 20 км 3/0
[Ci sp]
+28.4 +6.1 24 +27 +39 жарко 1017.4 1017.1
12 26.06 Ю 3 20 км 8/0
[Ci fib]
+30.4 +6.4 22 +29 +37 жарко 1016.3 1016.0
15 26.06 ЮЗ 4
{12}
20 км 5/0
[Ci fib]
+29.8 +6.4 23 +29 +30 жарко 1015.8 1015.5 +30.5
18 26.06 ЮВ 4 10 км 3/0
[Ac trans]
+24.4 +8.6 37 +25 +25 комфорт 1016.3 1015.9
21 26.06 Ю 4 10 км ясно +20.4 +7.9 44 +22 +22 комфорт 1016.7 1016.3
00 27.06 Ю 2 10 км ясно +16.3 +9.3 63 +16 +16 1016.7 1016.3
03 27.06 Ю 2 20 км ясно +19.8 +11.3 58 +22 +24 комфорт 1016.8 1016.5 +14.8
06 27.06 Ю 4 20 км ясно +27.5 +5.9 25 +27 +35 жарко 1016.7 1016.3
09 27.06 ЮВ 4
{12}
20 км ясно +31.1 +4.6 19 +29 +42 жарко 1015.2 1014.8
12 27.06 Ю 5
{11}
20 км 3/0
[Ci fib]
+31.6 +7.3 22 +30 +36 жарко 1013.4 1013.0
15 27.06 Ю 3 20 км 5/0
[Cs]
+30.4 +7.7 24 +29 +31 жарко 1012.6 1012.2 +32.2
18 27.06 ЮВ 3 10 км 3/0
[Cs]
+24.2 +10.6 42 +25 +25 комфорт 1013.2 1012.9

 

Местоположение метеостанции Юста (Калмыкия, Россия): широта 47.13 долгота 46.32 высота над уровнем моря 3 м.

В архиве по умолчанию представлена погода в Юсте за последнюю неделю. Архивные данные за месяц целиком и за предыдущие месяцы, начиная с января 2011 года, Вы можете получить, выбрав интересующий диапазон дат из раскрывающегося списка и нажав кнопку "Ввод!".

Внимание! Время в таблицах - всемирное. Для получения местного времени необходимо прибавить поправку, которая в Юсте равна 3 ч.

Смотрите также архив погоды в соседних городах и на ближайших метеорологических станциях:

Погода в Харабали (Астраханская область, Россия) (76 км)
Погода в Утте (Калмыкия, Россия) (88 км)
Погода в Черный Яр (Астраханская область, Россия) (106 км)
Погода в Досанге (Астраханская область, Россия) (124 км)
Погода в Верхнем Баскунчаке (Астраханская область, Россия) (125 км)
Погода в Яшкуле (Калмыкия, Россия) (129 км)
Погода в Кетченерах (Калмыкия, Россия) (134 км)
Погода в Малых Дербетах (Калмыкия, Россия) (151 км)
Погода в Астрахани (Астраханская область, Россия) (158 км)
Погода в Лимане (Астраханская область, Россия) (163 км)

Пояснения к столбцам:

Ветер - указаны скорость ветра в м/с - средняя за 10 мин, порывы в срок и между сроками (в фигурных скобках) и направление, откуда дует ветер: С - северный, СВ - северо-восточный, В - восточный, ЮВ - юго-восточный, Ю - южный, ЮЗ - юго-западный, З - западный, СЗ - северо-западный.
Видимость - горизонтальная дальность видимости в метрах или километрах. При видимости от 1 до 10 км при отсутствии осадков обычно наблюдается дымка, при ухудшении видимости до 1 км и менее - туман. В сухую погоду видимость может ухудшаться дымом, пылью или мглою.
Явления - указаны атмосферные явления, наблюдавшиеся в срок или в последний час перед сроком; фигурными скобками обозначены явления, наблюдавшиеся между сроками (за 1-3 часа до срока); квадратными скобками обозначены град или гололедные отложения с указанием их диаметра в мм.
Облачность - указаны через наклонную черту общая и нижняя облачность в баллах и высота нижней границы облаков в метрах; квадратными скобками обозначены формы облаков: Ci - перистые, Cs - перисто-слоистые, Cc - перисто-кучевые, Ac - высококучевые, As - высокослоистые, Sc - слоисто-кучевые, Ns - слоисто-дождевые, Cu - кучевые, Cb - кучево-дождевые. Подробнее классификацию облаков см. в Атласе облаков (PDF).
T - Температура воздуха - температура, измеренная на высоте 2 м над землей.
Td - Температура точки росы - температура, при понижении до которой содержащийся в воздухе водяной пар достигнет насыщения.
f - Относительная влажность воздуха - влажноcть воздуха, измеренная на высоте 2 м над землей.
Te - Эффективная температура - температура, которую ощущает одетый по сезону человек в тени. Характеристика душности погоды. При расчете учитывается влияние влажности воздуха и скорости ветра на теплоощущения человека.
Tes - Эффективная температура на солнце - температура, которую ощущает человек, с поправкой на солнечный нагрев. Характеристика знойности погоды. Зависит от высоты солнца над горизонтом, облачности и скорости ветра. Ночью, в пасмурную погоду, а также при ветре 12 м/с и более поправка равна нулю.
P - Атмосферное давление - приведенное к уровню моря атмосферное давление.
Po - Атмосферное давление - измеренное на уровне метеостанции атмосферное давление.
Tmin - Минимальная температура - минимум температуры воздуха на высоте 2 м над землей.
Tmax - Максимальная температура - максимум температуры воздуха на высоте 2 м над землей.
R - Количество осадков - Количество выпавших осадков за период времени, мм. При наведении курсора мыши на число - период времени, за который выпало указанное количество осадков.
R24 - Количество осадков - Количество выпавших осадков за 24 часа, мм.
S - Снежный покров - Высота снежного покрова, см. При наведении курсора мыши на число - состояние снежного покрова и степень покрытия местности в баллах.